RH
8 7 20 38 38 37 50 53 66 76 73 84 86 80 71 63 69 72 71 76 84 82 77 80 79 79 76 77 88 89 90 91 96 96 96 86 57 50 57 64 65 56 62 80 91 93 91 90 91 91 92 91 89 88 84 84 85 88 90 89 90 91 90 89 86 87 89 89 88 87 85 82 78 79 82 78 75 77 77 78 81 84 89 92 92 93 93 92 94 94 95 96 93 93 93 91 92
7 11 24 36 37 44 63 62 76 83 78 90 84 75 71 70 73 75 81 80 81 79 76 78 77 81 81 80 82 83 88 85 86 92 84 75 62 54 60 64 61 56 66 86 93 93 91 93 96 94 91 86 88 86 80 86 89 90 90 88 91 89 89 90 87 88 90 88 87 88 86 85 85 83 83 77 70 70 71 74 78 84 89 91 92 94 93 92 92 92 95 95 93 93 92 90 91
7 16 25 35 44 52 67 67 83 87 83 93 86 82 76 75 80 82 84 77 76 76 74 71 69 73 80 86 81 85 92 77 67 76 66 59 60 53 61 63 59 59 69 91 97 93 94 95 96 92 87 85 88 85 83 89 91 91 89 89 90 86 86 88 86 88 91 86 86 89 87 89 91 89 86 82 80 79 79 80 81 86 89 92 94 96 95 93 94 95 94 94 93 92 90 85 82
10 20 25 35 56 63 68 72 85 87 86 85 81 89 82 81 86 85 81 75 74 74 71 65 68 62 71 89 80 83 87 70 56 63 59 47 51 53 60 62 59 63 76 95 97 96 97 92 91 89 87 87 86 86 90 91 90 89 89 91 89 84 83 88 92 92 91 89 89 91 90 90 90 88 87 88 90 88 87 87 86 89 92 94 96 97 96 93 96 96 93 94 90 85 82 76 68
13 25 26 34 64 71 70 75 82 84 83 75 76 86 78 80 87 84 80 76 72 74 72 67 77 64 58 66 64 79 79 66 54 52 53 46 52 55 57 62 63 65 81 94 94 98 94 89 92 92 90 89 88 89 92 90 90 90 90 90 85 81 82 90 96 95 94 94 94 94 93 93 91 90 89 92 96 94 92 91 90 92 94 93 93 94 93 91 94 94 92 92 86 77 70 65 60
17 29 32 34 56 63 70 81 83 82 74 70 81 84 74 78 81 78 72 68 65 68 71 65 73 67 60 54 49 59 60 62 56 46 47 48 54 55 56 64 68 69 83 93 94 98 92 94 95 94 94 93 92 89 91 91 91 91 92 92 88 88 91 93 95 97 98 96 97 98 97 97 97 96 93 92 95 97 95 94 95 95 93 89 87 88 88 88 91 92 92 92 92 82 68 64 60
18 35 52 52 58 60 74 87 85 85 73 66 77 77 71 74 70 66 64 64 63 60 65 65 61 68 73 60 51 46 46 56 50 45 48 51 55 54 58 63 68 72 86 95 96 99 96 98 95 95 97 96 94 86 87 91 93 94 97 98 96 95 94 92 90 94 98 98 100 99 100 100 101 100 98 95 94 95 94 95 97 96 95 92 88 87 85 86 89 90 92 93 95 86 73 66 61
18 41 67 70 71 68 77 83 76 79 73 64 68 68 65 68 63 62 66 67 68 61 63 66 58 72 80 63 62 50 41 48 43 46 49 52 55 55 59 61 68 78 93 99 99 101 98 99 97 99 98 97 95 83 80 84 91 95 97 95 90 88 86 86 84 86 87 91 93 93 96 96 96 98 100 100 98 94 93 96 95 94 96 96 93 91 89 88 88 90 94 92 91 88 76 67 68
22 41 62 68 68 68 76 78 69 69 66 64 67 64 62 65 63 63 66 65 64 62 63 66 59 71 78 65 65 51 39 46 43 47 50 53 54 54 59 62 74 85 92 95 94 91 86 89 90 90 87 88 85 75 71 72 79 86 86 79 75 76 75 75 77 78 75 75 78 79 82 83 84 86 92 97 101 99 97 97 96 96 96 95 93 93 94 91 91 93 96 92 92 92 80 76 80
32 48 60 65 63 66 74 73 68 67 60 63 70 68 67 63 61 60 61 61 59 60 60 60 61 70 73 66 65 50 41 45 43 49 52 53 53 56 64 70 79 83 80 75 73 69 66 68 66 64 63 67 67 63 60 55 58 66 70 66 63 63 60 60 59 61 59 59 61 60 61 64 67 70 77 84 93 98 100 101 99 100 97 96 94 94 96 93 95 97 99 96 96 96 87 87 88
42 57 60 62 63 67 73 72 67 65 62 66 73 69 63 55 53 55 55 55 53 56 54 58 69 70 66 63 58 45 39 43 45 50 53 54 58 63 69 70 71 74 68 55 51 50 50 50 47 46 44 48 48 49 48 39 36 40 46 48 47 45 44 42 39 42 43 42 40 37 35 38 42 45 54 64 76 85 91 97 100 101 100 100 98 97 99 97 99 98 99 98 98 99 94 93 90
42 56 60 64 67 63 62 65 59 58 64 74 84 71 54 51 53 52 54 52 51 55 49 54 68 63 65 67 55 43 37 42 46 52 55 56 58 59 59 56 55 58 54 46 44 41 40 42 42 41 38 38 35 35 35 31 29 26 24 26 27 26 26 24 23 27 29 27 24 21 20 22 21 21 28 35 47 59 66 73 82 89 92 98 101 100 101 100 101 98 97 99 100 100 99 97 94
38 53 57 63 69 57 50 54 54 58 64 72 79 62 41 45 51 47 47 44 45 54 46 46 57 55 62 64 50 41 37 39 45 53 54 50 45 42 43 40 40 39 36 37 37 33 32 32 32 33 31 29 26 23 22 22 24 22 18 16 15 14 13 13 13 14 15 15 15 14 13 13 13 12 13 13 18 27 34 41 48 57 65 78 89 93 97 98 97 93 89 93 97 98 98 99 99
34 55 55 57 66 57 52 52 55 64 65 56 47 39 32 35 39 37 39 39 38 41 37 35 44 51 56 58 49 40 36 37 45 50 44 37 32 31 34 33 33 31 29 29 28 26 25 23 21 21 20 19 18 16 16 16 16 16 15 14 11 11 10 10 10 11 11 11 11 11 10 10 10 10 10 9 9 9 13 18 20 27 37 47 58 66 73 79 82 83 83 86 92 94 95 96 97
32 60 57 58 66 59 56 51 53 65 65 44 28 29 32 31 31 33 35 38 36 29 30 29 32 45 55 61 54 38 32 38 49 46 31 28 27 28 31 30 33 32 31 29 27 26 22 21 19 16 16 15 15 14 15 15 14 14 14 14 13 12 12 12 12 12 12 11 11 11 10 10 10 9 9 9 9 8 7 8 8 10 16 23 32 41 46 51 57 64 72 78 83 88 93 94 95
46 65 58 63 69 62 56 46 50 68 63 39 29 32 34 32 29 31 30 31 34 27 29 30 28 36 44 48 44 33 31 41 51 41 27 26 26 28 29 30 32 32 32 31 29 28 24 23 20 18 17 17 17 16 16 16 17 16 16 16 15 15 14 14 14 14 14 13 13 12 12 11 11 11 11 10 9 9 8 7 7 7 7 9 14 20 24 27 31 41 51 59 66 75 83 87 91
54 59 56 63 65 63 57 41 47 65 56 36 31 33 36 36 28 28 26 25 31 28 29 29 26 30 33 34 33 30 36 46 47 36 27 25 25 27 29 30 31 31 31 30 29 28 26 25 22 21 20 20 19 18 18 18 18 18 18 18 17 18 17 17 17 16 16 16 15 14 14 14 14 13 12 13 11 10 9 9 8 7 7 6 7 8 9 11 13 20 27 35 44 55 68 74 78
47 54 56 58 56 56 49 36 41 50 43 35 34 32 36 37 32 29 27 27 29 28 28 27 26 26 26 29 29 30 39 44 41 33 27 24 25 27 28 29 30 31 31 30 29 28 27 26 25 24 23 23 21 20 20 20 20 19 19 19 20 20 19 19 19 19 19 18 18 17 17 17 16 16 15 14 14 13 12 10 9 8 7 7 7 6 7 7 7 8 10 16 22 31 44 53 60
47 60 56 58 57 44 33 30 36 39 36 36 34 32 35 36 33 30 31 33 31 31 30 27 27 25 24 26 26 33 40 39 35 31 26 25 26 26 27 28 29 30 30 30 29 28 27 27 26 25 24 24 22 22 22 21 21 20 21 21 22 22 22 22 21 22 21 20 20 19 19 19 19 19 18 17 15 15 13 12 11 9 9 8 7 7 7 7 6 7 6 7 9 13 20 25 33
45 54 52 60 54 31 24 28 33 36 33 34 33 32 34 33 30 29 33 35 33 34 32 29 29 26 24 24 26 33 36 33 30 27 24 25 25 26 27 26 27 28 29 29 29 28 27 27 26 25 24 23 22 22 22 23 22 22 23 23 23 24 23 23 24 24 23 23 23 22 21 20 20 20 19 18 17 16 15 14 13 11 10 8 8 8 7 7 7 7 6 6 6 7 9 11 13
37 44 49 53 38 25 27 27 31 33 30 31 32 32 34 32 30 30 33 39 37 33 29 29 28 25 24 22 24 28 28 27 25 24 24 25 25 25 25 25 26 27 28 29 28 28 27 26 26 25 24 22 23 23 23 23 23 24 24 24 24 24 25 25 26 26 25 25 24 24 23 22 21 21 20 19 18 18 17 15 14 13 11 10 10 10 9 9 8 7 7 7 7 7 7 9 11
33 38 41 40 31 28 29 26 29 30 28 31 32 33 34 33 35 34 36 43 39 31 27 26 24 22 22 21 21 23 24 24 24 24 24 25 26 25 25 24 25 26 28 28 27 28 26 26 25 24 24 23 23 23 24 24 24 25 24 26 26 26 27 27 28 28 28 27 27 26 25 24 23 22 21 20 20 19 18 18 16 14 13 13 13 13 13 10 10 9 8 8 7 8 8 9 12
32 34 30 32 33 32 29 27 27 28 29 32 32 33 35 36 38 36 34 38 33 27 25 23 22 20 19 19 20 21 23 23 24 25 25 25 25 25 24 23 24 25 26 27 28 28 26 26 25 25 24 24 24 24 25 25 25 26 26 27 27 28 28 29 30 30 30 29 28 28 27 26 25 24 23 22 22 21 21 20 18 17 15 15 15 14 14 12 12 10 10 9 8 8 8 9 14
31 31 27 30 33 31 28 26 27 29 31 32 32 33 36 38 38 35 32 31 27 23 22 20 20 19 19 20 20 22 23 24 24 25 25 25 25 24 23 23 23 24 25 26 27 27 27 26 25 25 25 25 25 26 26 26 27 28 28 28 28 29 29 30 32 32 32 31 30 29 29 28 27 26 25 23 22 22 23 22 20 18 17 17 16 15 14 13 13 12 11 10 10 9 9 12 20
29 25 28 31 29 27 25 27 29 29 31 32 33 36 38 38 36 36 33 29 24 21 20 19 20 20 20 21 22 23 24 25 26 26 26 25 24 23 22 23 23 24 24 25 25 27 27 26 26 26 27 27 27 27 27 27 28 29 29 30 30 30 30 31 32 33 33 32 32 31 30 30 29 28 28 25 22 22 23 23 22 20 19 18 17 17 16 15 13 13 12 12 12 10 10 14 20
28 21 28 32 26 25 25 27 29 29 31 31 34 40 39 35 35 37 33 27 23 19 19 19 20 21 22 23 23 24 25 27 27 27 27 25 24 23 23 23 22 23 24 24 24 25 26 27 27 27 28 28 28 28 27 28 28 29 30 30 31 31 31 31 32 34 34 34 33 32 32 31 31 30 30 28 24 23 24 24 24 22 20 19 18 18 17 16 15 14 14 13 13 12 12 14 16
26 22 29 32 25 23 24 27 28 28 29 29 35 40 37 34 37 41 34 27 23 20 21 21 21 22 22 23 24 24 25 27 27 27 27 26 25 24 23 23 23 24 24 25 25 24 26 26 27 28 29 29 29 28 27 28 28 29 30 29 31 32 32 33 33 34 34 35 34 33 33 31 32 31 31 30 27 24 24 25 25 24 22 21 21 20 19 18 17 16 16 15 14 14 14 15 14
22 20 26 30 26 24 24 27 28 26 28 30 33 36 36 38 41 42 34 29 25 21 22 22 22 24 24 25 25 26 26 26 26 27 28 27 26 25 23 23 23 24 24 25 26 26 26 27 28 29 29 30 29 29 28 28 28 29 29 29 30 32 33 34 33 34 35 35 35 34 33 33 32 32 32 32 30 27 26 27 27 26 25 24 23 23 22 20 19 18 18 18 17 15 15 15 14
18 20 27 30 27 28 27 26 27 25 30 29 28 35 39 43 45 38 32 29 25 21 24 24 24 25 25 27 28 28 27 27 27 26 27 26 25 25 24 24 23 24 25 25 26 27 28 29 30 30 30 30 29 29 30 29 29 29 29 30 30 32 34 34 34 34 35 35 36 35 34 34 33 33 34 32 32 31 28 28 28 28 27 27 27 26 25 23 22 21 20 21 19 17 17 16 15
22 24 30 33 31 36 30 23 27 26 30 27 26 38 42 45 44 35 31 28 24 23 24 25 26 26 27 29 30 31 31 29 28 26 26 26 25 25 24 24 24 25 25 25 26 26 27 28 30 32 31 31 31 30 30 30 30 29 30 30 30 34 35 34 34 34 35 36 36 37 36 35 34 34 34 34 34 33 31 29 29 30 29 29 30 28 28 27 25 24 22 22 20 18 18 17 16
30 26 29 35 34 48 41 25 29 28 30 28 27 39 44 47 44 35 32 28 23 25 25 25 27 27 29 31 32 34 33 29 28 27 26 25 25 25 26 26 25 25 25 25 25 26 26 27 29 32 32 31 31 31 31 31 31 30 31 31 31 36 37 35 35 34 35 37 37 38 37 36 35 35 36 36 35 35 35 32 30 30 29 30 31 30 30 29 28 27 25 23 22 19 18 18 16
37 28 39 49 37 47 45 29 30 27 30 29 30 47 52 50 45 36 35 29 24 26 26 27 28 28 30 33 34 35 34 30 28 28 27 26 25 26 26 27 27 27 27 26 26 27 27 27 29 32 33 33 32 32 33 33 33 32 31 33 34 37 38 37 37 36 36 38 38 38 38 37 36 36 37 37 36 37 38 36 33 30 30 31 31 32 31 30 30 29 29 27 24 20 19 19 17
46 34 43 56 42 40 38 30 29 26 31 30 34 55 58 51 46 39 37 31 26 27 28 28 28 30 32 33 35 35 35 34 31 29 28 27 27 27 27 27 28 28 28 29 29 29 29 29 30 32 33 33 34 33 34 35 35 35 34 35 38 39 39 38 38 38 38 39 39 39 38 37 36 37 38 38 38 38 38 39 36 32 31 32 32 33 32 32 31 31 33 30 27 24 21 20 18
44 38 37 46 45 42 39 36 31 27 33 33 36 51 55 51 46 40 39 33 27 28 28 28 28 29 32 34 35 36 36 37 34 30 28 28 28 28 28 28 28 28 29 29 30 30 31 31 31 32 33 34 35 35 36 37 36 37 38 38 40 41 39 38 38 39 39 39 38 38 38 37 38 39 39 39 39 39 39 39 39 36 33 32 33 33 32 33 32 32 33 33 32 27 23 22 20
33 40 39 41 43 42 41 38 33 31 34 37 38 43 50 52 46 41 40 35 29 28 27 27 28 29 32 34 35 35 35 36 35 30 28 28 29 29 29 29 28 28 29 29 29 30 31 32 32 32 33 34 35 36 38 39 39 38 40 42 42 42 41 37 37 39 39 38 37 36 37 38 37 38 39 40 39 39 40 40 40 39 34 33 34 33 33 32 32 33 33 34 34 32 30 25 21
41 47 46 42 40 42 46 39 34 34 34 41 41 40 49 54 49 44 42 38 31 28 28 27 27 29 32 33 34 35 35 36 33 30 30 28 29 30 29 30 29 28 29 29 29 30 31 33 33 33 33 34 36 38 40 42 42 39 41 44 42 43 41 35 36 40 38 37 37 33 33 36 35 35 38 40 41 40 41 41 42 41 37 35 35 34 33 32 33 33 34 35 34 35 36 28 25
43 46 48 49 47 49 50 41 38 37 34 43 48 47 54 53 49 45 41 42 35 29 29 28 28 29 31 32 33 34 33 34 33 31 31 29 29 30 30 31 30 29 29 28 29 30 31 33 33 33 33 35 37 39 41 44 45 41 42 44 44 43 39 36 39 40 38 37 34 29 28 32 34 34 36 38 41 42 42 42 42 42 39 36 36 35 34 34 34 33 35 36 35 36 36 31 29
36 41 44 48 55 56 51 41 40 41 36 47 55 52 54 53 49 46 42 44 39 31 29 28 27 27 29 31 32 34 33 34 36 36 34 32 31 31 31 31 31 31 30 29 31 30 31 33 33 34 34 36 39 41 44 46 47 44 42 43 44 42 37 38 42 41 38 34 29 25 25 30 35 37 37 37 39 42 43 44 44 44 42 38 38 37 36 35 35 36 36 36 37 36 36 36 32
40 43 40 46 59 57 50 45 44 44 39 47 54 49 52 53 49 46 42 43 40 34 29 26 27 26 27 30 31 33 34 36 39 39 38 35 33 32 32 32 32 32 31 31 33 32 32 33 34 34 35 38 41 44 46 48 48 45 43 43 43 39 36 39 42 38 34 29 25 24 28 35 39 39 39 39 39 41 41 42 43 44 44 41 39 40 38 37 38 39 38 37 39 38 36 38 34
44 47 40 48 59 48 44 47 48 53 52 55 59 54 55 55 50 49 43 40 42 42 37 30 27 27 25 26 30 32 32 36 39 39 39 38 35 35 33 33 34 33 33 32 32 34 34 34 35 35 37 40 44 46 48 49 48 45 43 41 39 37 35 37 36 32 30 29 27 29 36 41 41 40 40 42 42 42 41 40 41 44 46 43 41 41 40 39 40 41 41 40 40 40 39 40 36
58 58 42 48 58 51 50 51 48 53 54 56 60 59 61 58 54 53 47 44 44 46 47 38 30 28 26 26 28 31 32 34 38 38 38 39 38 38 35 34 35 35 34 33 32 33 34 34 34 36 38 42 47 48 49 49 48 46 43 39 37 36 35 35 33 31 32 32 31 37 43 43 41 41 42 44 44 44 43 40 40 44 47 44 42 44 43 43 44 43 44 43 41 42 42 42 39
62 65 49 51 59 56 56 52 44 45 49 53 55 58 65 64 60 55 50 52 49 46 50 44 35 30 28 29 27 29 32 33 36 36 36 38 38 38 37 36 36 35 35 34 33 33 33 33 34 36 40 45 49 49 48 49 47 45 42 38 37 37 36 36 34 35 35 33 35 42 46 43 40 41 43 45 46 46 46 42 41 46 49 47 45 46 45 46 48 46 45 45 44 44 43 44 42
51 57 55 60 62 59 59 51 48 53 53 51 50 56 65 64 62 60 55 57 53 48 50 46 40 33 30 30 27 27 30 32 36 36 34 37 38 39 40 38 37 35 35 34 34 34 33 33 34 36 42 47 50 49 48 48 46 44 41 38 39 38 36 36 35 36 35 33 39 45 46 44 41 41 45 47 46 46 48 47 48 51 52 51 50 51 50 50 51 48 47 46 45 44 43 45 44
55 57 62 68 62 58 57 46 50 58 50 50 52 50 60 62 59 61 60 59 58 53 50 48 44 36 31 30 28 27 28 32 37 37 36 36 37 39 40 39 37 35 34 33 34 35 33 32 33 38 45 49 48 47 46 46 45 43 40 39 40 38 36 36 36 36 33 35 43 47 46 44 42 45 48 49 47 47 49 51 55 57 56 56 56 56 56 55 54 51 49 47 45 46 44 44 46
54 56 60 67 62 62 62 47 50 52 43 57 64 51 57 67 63 64 63 60 61 58 51 48 46 41 35 31 30 29 27 31 35 36 36 36 36 38 38 37 36 35 35 33 32 35 33 31 34 41 47 48 46 45 45 44 45 42 40 40 41 39 37 37 37 34 33 38 46 48 46 44 45 50 51 50 48 46 48 52 54 56 57 58 59 59 59 59 58 57 57 55 51 49 46 45 47
46 54 58 68 68 64 60 51 53 54 51 64 66 54 57 65 67 69 66 62 61 56 50 48 46 44 40 34 32 30 29 32 35 36 35 34 35 35 35 35 35 35 35 32 31 34 34 33 38 44 47 46 44 44 44 44 44 42 41 41 41 39 37 37 36 33 34 42 49 48 46 46 49 52 52 49 47 46 49 51 51 53 53 54 56 57 58 59 59 59 60 62 61 57 51 47 45
49 56 52 55 55 52 57 62 56 52 61 68 61 55 54 58 68 69 62 61 58 52 50 50 48 47 44 39 36 34 32 33 36 38 35 34 34 33 34 35 35 34 34 34 34 35 36 37 41 45 45 44 43 44 44 44 44 42 41 42 41 40 38 37 36 34 37 44 49 48 45 48 52 52 51 49 49 51 52 52 52 53 52 53 54 54 56 58 59 59 58 60 63 65 64 60 55
57 52 44 40 41 52 63 66 56 50 64 67 54 52 56 58 62 59 55 55 55 54 51 50 50 49 46 44 42 39 37 35 36 39 38 36 36 35 35 36 35 35 36 37 37 37 39 40 43 45 44 44 44 44 44 44 43 42 42 43 42 40 38 37 36 35 38 46 49 46 45 49 52 52 51 50 51 53 53 53 54 53 52 53 54 54 56 60 62 62 61 61 61 62 64 67 70
56 46 49 48 43 52 64 66 61 57 60 52 38 42 54 54 45 46 54 52 53 57 53 50 50 49 48 47 45 45 44 41 38 39 40 40 39 37 37 36 35 36 37 39 39 40 41 42 44 44 43 44 44 44 44 44 43 43 43 44 42 41 38 36 35 35 39 46 48 45 46 49 51 51 50 49 49 50 51 52 52 51 51 51 52 53 57 62 64 64 65 66 64 62 61 61 64
42 39 52 58 49 50 62 68 64 62 60 46 31 35 47 45 35 44 55 51 53 58 54 54 53 50 49 47 46 48 49 47 44 42 41 41 41 38 36 35 36 37 38 40 41 41 43 44 44 44 44 44 44 44 44 44 44 43 44 44 43 40 37 35 35 36 40 45 46 45 47 49 50 50 49 48 47 47 48 49 49 50 50 50 50 52 57 61 63 66 68 71 72 70 68 66 62
48 45 45 51 59 60 59 62 64 67 67 47 30 38 52 48 41 54 65 62 64 64 57 57 56 54 53 50 50 51 50 50 48 46 44 41 40 38 37 36 36 39 40 41 43 43 43 44 44 44 44 44 44 44 44 44 44 44 44 44 43 40 37 35 34 36 40 43 45 46 47 48 49 49 47 46 46 45 46 47 47 49 49 49 50 52 55 58 59 62 65 68 73 76 76 75 71
47 42 32 37 54 56 53 66 72 63 55 44 37 45 55 48 42 59 71 64 62 63 60 60 60 61 60 57 56 53 51 51 50 49 48 44 42 40 39 38 39 41 42 43 44 44 44 44 44 45 44 44 45 45 45 45 44 44 45 44 42 39 36 35 34 36 41 43 45 46 46 48 48 47 46 45 45 45 45 46 47 48 48 49 51 52 54 55 56 56 57 61 67 75 81 83 80
35 31 33 40 41 35 39 56 62 51 40 41 41 40 41 36 35 58 71 61 56 59 60 62 64 68 66 60 57 55 54 53 52 52 51 49 49 48 43 42 43 45 46 46 45 44 44 44 44 45 45 45 46 45 45 45 45 45 45 44 42 39 36 35 35 36 41 44 46 46 46 48 48 47 45 45 45 45 46 48 49 48 48 49 51 52 52 52 52 50 50 55 62 69 77 83 85
33 29 35 36 35 40 46 45 50 53 46 43 46 45 43 36 36 54 64 59 58 59 59 62 66 71 69 61 58 58 57 56 57 59 57 55 56 57 52 46 44 44 44 44 44 44 44 44 44 45 45 46 46 46 46 45 45 46 45 44 41 38 37 35 35 36 40 43 44 45 46 47 47 46 45 45 45 46 47 49 50 50 50 51 51 51 52 51 50 46 45 50 58 67 74 78 83
34 35 32 29 38 53 54 45 50 57 50 53 61 55 48 46 51 57 52 52 57 55 58 61 62 67 67 62 60 61 62 64 64 65 65 64 62 62 61 54 49 46 43 43 43 44 45 45 45 45 45 46 46 46 46 45 47 46 45 43 40 38 37 36 35 37 40 43 44 45 46 47 47 46 44 45 46 47 49 50 51 51 51 52 52 53 54 53 51 48 48 53 59 68 75 77 80
31 32 24 27 42 55 51 44 54 58 50 58 64 55 49 49 56 55 43 47 55 52 56 57 54 59 61 60 60 62 65 67 66 65 66 66 65 65 64 59 53 49 45 44 45 46 47 46 47 47 46 47 46 46 46 46 47 46 44 43 39 38 38 36 36 37 40 43 44 45 46 46 47 46 45 46 47 48 51 52 52 52 52 53 54 55 56 56 55 52 52 60 66 70 75 76 77
28 31 28 25 26 38 41 37 50 55 47 53 52 49 51 41 43 50 42 46 54 51 52 50 48 53 54 56 58 59 63 64 63 64 64 66 66 65 66 62 56 52 48 48 48 48 48 47 48 48 47 48 47 46 47 47 47 46 44 42 39 38 38 36 36 37 41 44 45 46 47 48 48 48 48 49 49 51 52 52 53 53 54 55 56 57 58 59 58 55 57 66 73 74 74 75 76
33 35 41 43 37 39 39 40 58 55 48 59 51 42 47 36 36 48 41 42 51 51 49 46 45 48 48 51 54 54 58 59 59 61 61 65 67 66 67 65 62 59 56 54 52 50 50 49 48 48 48 48 47 47 48 48 47 45 43 41 40 39 37 36 36 38 41 44 45 46 47 49 51 52 52 51 51 52 53 54 54 55 56 57 58 60 61 62 60 59 63 72 76 76 77 75 74
Wind_Speed
16 15 11 9 6 3 3 3 1 2 1 1 3 1 4 5 2 2 3 1 2 3 3 5 7 6 6 10 13 11 10 5 2 1 3 5 7 12 13 10 8 10 12 12 14 17 17 15 16 17 16 17 17 16 17 20 21 21 21 20 20 20 22 21 21 19 17 15 14 14 14 12 8 6 9 9 9 8 8 9 10 10 7 7 6 6 6 6 5 6 7 8 8 8 10 10 11
16 14 10 8 4 1 1 2 2 2 1 2 3 3 4 3 2 2 4 2 4 5 3 9 13 13 13 14 11 9 11 8 4 3 3 7 8 14 13 10 10 12 12 13 16 18 17 16 16 16 16 16 17 17 18 20 21 21 20 19 19 20 20 20 21 22 21 19 18 17 16 15 13 11 10 10 9 9 8 8 9 9 8 7 7 7 7 6 7 7 8 9 9 10 12 13 14
14 12 10 7 3 2 1 2 2 1 1 3 3 2 2 1 2 2 4 7 9 10 7 7 9 7 6 8 6 6 5 3 5 3 3 7 5 10 13 10 11 12 13 15 17 18 16 15 15 15 15 16 17 19 20 20 20 20 19 19 18 18 18 19 21 22 22 21 21 20 19 20 18 16 15 14 13 12 11 10 9 9 9 9 8 8 8 8 8 9 9 11 13 14 15 16 17
12 10 10 6 2 2 2 2 2 3 2 3 3 4 1 3 4 4 6 9 11 8 3 4 5 6 4 9 5 6 7 1 4 3 3 8 6 9 12 10 10 12 14 16 17 18 16 14 14 15 16 16 17 20 21 20 20 20 19 18 18 17 17 19 22 23 23 22 22 21 21 22 22 22 20 18 17 15 14 13 12 12 13 12 11 11 10 11 11 11 13 13 15 16 16 16 17
9 8 6 2 2 1 2 1 1 3 4 3 2 4 1 4 6 7 6 6 5 1 1 3 3 2 5 7 2 3 4 2 5 6 5 7 10 12 13 11 11 13 15 15 17 18 17 16 15 16 17 17 18 19 20 20 20 20 20 19 18 17 17 20 23 25 25 24 23 22 21 21 21 23 25 24 22 19 17 16 14 15 15 15 15 15 13 14 13 13 14 15 16 15 15 16 16
7 6 2 1 1 1 2 0 1 3 4 4 2 3 3 6 8 9 7 5 3 5 3 2 5 6 5 4 3 4 1 3 5 6 6 9 13 13 13 13 12 14 14 14 17 18 17 16 16 17 19 20 20 20 20 21 21 21 21 21 20 20 19 20 22 25 26 26 25 25 24 23 22 23 24 25 25 23 21 20 18 16 15 15 15 15 15 15 14 13 14 15 15 15 16 17 17
8 5 2 1 1 0 2 2 3 3 4 4 4 5 7 6 9 11 8 5 4 7 5 4 8 10 5 0 3 7 5 6 6 5 8 11 14 14 14 14 13 14 14 15 18 18 17 16 17 18 20 22 22 21 21 22 23 22 23 24 25 25 24 24 23 24 26 26 26 26 26 25 25 25 25 24 25 25 25 23 22 20 17 16 15 15 15 14 13 12 12 13 13 14 17 17 17
5 1 1 2 1 1 2 2 3 3 4 3 4 8 10 10 10 9 7 3 2 3 4 4 5 7 3 1 3 4 9 10 8 10 12 14 14 15 14 14 15 16 16 16 18 19 18 18 19 19 21 22 23 23 22 23 24 23 25 26 28 28 27 27 27 26 25 25 25 25 26 26 25 25 26 26 25 25 26 24 23 23 21 19 17 15 14 13 11 11 10 11 12 13 16 17 17
2 1 1 2 1 1 1 2 3 3 4 4 3 5 9 10 7 6 7 5 3 4 3 3 2 6 5 5 5 2 7 9 11 13 15 15 14 14 15 15 16 18 19 19 20 21 21 20 21 22 24 24 25 25 23 24 24 24 25 27 29 30 29 26 27 27 26 28 27 27 28 28 27 25 25 26 27 27 27 25 24 24 24 21 20 18 15 13 11 10 9 10 11 12 14 16 16
2 0 1 2 1 1 3 2 2 3 4 1 1 3 6 5 4 5 8 7 3 5 4 3 6 9 9 7 4 2 5 8 13 15 15 16 14 15 17 18 19 21 22 22 23 23 23 23 24 26 27 27 27 26 25 26 27 26 26 27 28 29 30 27 27 27 28 29 28 29 30 30 30 29 28 26 27 27 28 27 25 25 25 23 22 20 18 17 16 12 10 10 10 10 11 14 15
3 3 1 2 1 2 4 2 3 4 3 3 4 4 4 5 7 6 6 8 4 5 3 5 9 11 10 6 1 3 7 11 14 16 16 16 17 18 20 21 21 22 23 23 24 24 24 25 25 27 28 29 28 26 27 28 30 31 30 30 30 30 30 29 30 29 28 29 30 31 31 32 32 32 31 29 28 28 28 28 27 26 25 25 24 23 22 23 21 17 15 15 14 12 11 12 14
2 3 3 2 2 3 3 2 5 3 3 4 4 7 3 4 8 6 7 8 4 6 2 2 8 9 8 4 1 6 9 13 16 17 18 19 21 22 23 23 23 23 23 23 23 24 24 24 24 25 26 28 28 28 28 30 32 32 32 33 33 34 33 33 33 32 30 30 31 33 33 33 33 33 33 32 30 29 29 29 29 27 26 25 25 24 24 25 24 21 20 20 19 18 15 14 14
2 1 4 1 3 2 3 2 4 1 2 1 1 5 4 1 5 5 7 8 3 5 3 1 10 7 5 4 3 6 9 13 16 18 21 23 25 25 25 25 25 25 25 25 25 25 25 25 26 26 27 28 29 31 31 32 32 32 32 33 34 35 35 35 34 34 34 33 33 33 34 34 34 34 34 33 32 30 30 29 30 29 26 26 26 25 25 24 24 22 20 20 20 19 18 16 15
3 2 4 1 2 1 2 2 2 2 2 3 3 1 2 3 3 2 6 8 5 2 1 2 6 6 5 5 4 4 8 15 18 21 24 26 26 27 27 27 27 27 27 27 27 27 27 28 29 29 30 31 32 33 34 35 34 33 33 33 34 35 35 35 35 35 35 35 34 34 35 34 34 35 34 34 33 32 31 30 30 30 27 26 26 25 25 24 23 22 20 20 19 17 16 15 13
4 1 4 1 2 1 2 3 2 4 4 3 3 2 5 4 4 4 5 4 2 2 1 4 3 1 6 9 6 8 13 19 22 24 26 26 26 27 27 27 27 27 27 27 27 27 27 28 30 31 32 33 33 34 35 35 35 35 34 34 35 35 34 34 34 35 34 35 34 34 34 34 33 34 34 34 33 33 32 31 30 30 28 27 26 24 24 23 22 22 21 20 19 17 16 15 13
3 3 3 0 2 2 3 2 2 3 4 2 5 3 6 6 6 4 5 2 4 3 3 3 4 1 5 6 9 17 20 24 26 26 27 26 26 26 26 26 26 26 26 26 26 26 26 28 29 30 31 32 33 33 34 34 35 35 35 35 35 35 35 34 34 35 35 35 34 33 33 34 34 33 34 34 34 33 33 32 31 30 29 27 26 25 24 23 22 21 20 20 20 18 16 15 14
2 3 2 1 2 2 3 3 2 3 3 5 7 3 6 3 4 3 6 8 7 6 5 3 4 5 5 7 19 25 25 27 28 27 26 25 24 24 24 25 26 26 25 25 25 24 25 26 28 29 29 30 31 32 33 33 34 33 34 34 35 34 34 35 35 35 35 35 35 34 34 34 35 34 34 34 34 34 33 32 31 30 29 28 27 26 25 24 23 22 20 19 19 18 15 14 14
3 2 2 2 3 3 3 3 4 4 4 7 6 4 8 6 2 4 6 10 8 9 7 5 9 9 10 16 24 25 27 28 26 26 24 21 21 22 21 23 24 24 24 24 23 22 23 25 26 27 28 28 29 30 31 32 33 32 33 33 34 34 34 35 35 35 35 35 35 35 35 35 35 35 35 35 35 34 34 33 32 30 29 28 27 26 26 25 24 23 22 20 19 18 15 15 15
3 2 2 3 3 3 3 3 5 4 6 7 5 5 7 8 6 4 4 3 4 9 6 5 10 9 11 15 19 23 28 25 24 26 23 19 19 20 19 21 23 22 22 22 21 21 22 23 24 26 27 27 28 29 29 30 31 32 32 33 34 34 34 35 35 35 35 35 35 35 35 34 34 34 34 35 34 34 34 33 33 31 29 28 27 26 26 26 25 24 23 22 21 19 18 18 17
2 3 2 5 4 2 3 2 5 5 8 9 5 4 5 5 4 3 7 6 3 6 5 4 9 8 8 10 16 24 25 22 23 25 22 20 19 19 20 20 22 22 22 22 21 20 20 22 23 25 26 27 28 28 28 29 29 30 31 32 33 34 34 34 35 35 35 35 35 35 34 34 34 34 34 34 34 34 34 34 33 32 30 29 28 27 27 26 25 24 24 23 23 22 21 20 19
1 3 4 4 2 2 3 2 3 6 8 10 7 7 7 1 2 4 9 7 2 4 4 4 9 11 9 9 15 22 22 20 22 23 22 20 19 19 20 21 22 22 22 22 21 20 19 21 22 24 25 26 27 27 28 28 28 29 29 30 31 32 33 33 34 34 34 34 34 34 34 34 34 34 34 34 35 34 34 34 34 32 31 30 30 29 29 28 27 26 25 24 24 24 23 22 21
1 2 4 4 3 3 2 0 6 7 7 9 9 7 5 1 4 3 4 4 2 4 4 6 9 9 10 11 14 18 19 18 19 21 21 20 20 20 20 21 22 22 22 22 21 20 19 20 22 23 24 25 26 26 27 26 27 27 27 28 29 30 31 32 33 33 33 33 33 33 33 34 34 34 35 34 34 34 34 34 33 32 31 30 30 30 31 30 29 28 27 26 25 24 23 23 22
2 3 1 1 2 5 2 2 5 7 8 9 8 5 4 6 5 3 4 3 2 5 7 8 8 10 13 14 14 14 14 16 17 19 21 21 21 20 21 22 22 22 22 22 20 19 19 19 21 22 23 24 24 24 25 25 25 26 25 26 27 28 29 31 32 32 32 31 32 32 33 33 33 34 34 34 33 32 33 32 31 30 29 29 29 30 31 31 31 29 28 27 25 24 23 23 22
2 3 1 1 1 3 3 5 5 5 8 6 6 6 4 7 6 3 5 4 3 7 10 11 12 14 15 13 12 12 13 15 16 19 21 21 21 21 22 22 22 22 22 21 19 18 18 18 20 22 23 22 22 22 23 24 24 24 24 24 25 25 27 29 30 30 30 30 30 31 32 32 32 33 33 34 32 31 30 30 30 29 28 27 28 29 30 30 30 30 29 28 26 25 24 24 23
2 3 2 2 2 2 3 7 7 7 7 6 9 7 4 6 6 5 4 4 5 8 11 12 12 12 12 10 10 12 13 15 17 19 20 21 22 22 21 21 21 21 21 20 19 18 17 17 19 21 21 21 21 20 21 22 21 22 23 23 23 23 25 26 27 28 29 29 29 29 30 31 31 31 32 33 32 30 28 28 29 28 28 27 28 29 29 30 30 30 29 29 28 26 25 24 24
3 4 2 4 3 3 5 7 7 7 5 6 10 7 5 6 5 5 1 2 5 8 10 10 10 10 9 8 9 12 13 14 17 19 20 21 22 22 21 21 21 21 21 19 19 18 17 16 17 17 18 18 19 19 20 20 19 20 21 21 21 22 22 23 25 27 28 27 27 27 28 29 28 28 29 31 32 30 27 27 27 27 27 27 28 28 28 29 29 29 29 29 28 27 26 25 25
4 5 4 6 5 4 5 6 6 6 3 4 8 7 6 4 1 2 4 4 6 9 9 8 9 8 8 7 8 12 13 14 17 19 20 20 21 21 20 20 20 20 20 19 18 17 15 15 14 14 14 15 17 18 18 18 18 18 19 19 20 21 21 21 23 25 26 26 26 25 26 27 26 26 27 29 31 29 26 25 25 25 26 26 26 27 26 26 27 27 28 28 28 27 26 25 26
1 3 2 4 6 3 5 8 7 6 3 3 10 8 3 1 2 4 8 6 6 9 9 8 9 7 7 8 7 10 12 14 17 19 18 19 20 21 21 20 20 19 19 18 17 16 15 14 13 13 13 14 14 16 16 15 16 16 16 17 18 19 20 20 21 22 24 24 23 23 24 25 25 24 25 27 29 29 25 23 23 24 24 24 24 24 24 25 25 25 26 27 27 27 27 27 27
1 1 1 2 3 2 4 7 7 6 4 8 12 5 3 2 2 5 10 7 7 9 9 8 8 7 7 7 6 7 11 14 16 17 17 19 20 21 21 20 20 20 18 17 15 14 13 13 13 13 12 12 12 13 13 13 13 13 14 15 16 17 18 19 19 20 21 22 22 22 22 23 24 23 22 24 26 27 24 21 21 21 21 22 22 22 23 23 24 25 26 27 27 27 28 28 28
1 0 2 1 1 3 6 5 6 5 5 11 9 1 5 2 1 6 9 7 9 9 8 8 7 6 6 6 5 5 9 13 14 16 18 19 20 20 20 19 19 19 17 16 14 13 12 11 12 12 12 12 11 11 11 11 11 11 12 13 13 15 16 16 17 18 19 20 21 21 20 21 22 20 20 20 23 25 24 21 19 19 20 20 21 22 22 23 24 25 26 27 27 27 28 28 29
1 1 0 2 2 5 5 4 8 4 4 10 5 4 6 3 4 7 6 6 9 9 8 8 7 6 6 5 6 5 7 12 14 16 19 20 20 19 19 18 18 18 17 16 15 14 12 10 10 11 11 10 10 10 9 9 9 8 9 10 11 13 14 15 15 16 18 19 20 20 20 20 21 19 17 18 20 22 23 22 18 18 19 19 21 21 21 22 23 24 26 27 27 27 27 27 27
1 2 3 1 3 4 6 3 11 8 4 7 4 3 5 3 7 8 6 6 8 9 7 7 7 7 6 5 6 5 6 12 15 16 18 20 20 19 18 18 17 18 17 16 15 14 12 10 9 10 10 9 8 8 7 8 7 6 6 8 8 11 13 14 14 14 16 18 19 19 18 19 20 19 17 17 18 19 21 22 19 17 17 19 20 20 20 21 22 23 24 26 27 27 27 27 27
2 2 4 3 3 3 4 3 9 7 5 5 5 3 2 3 7 7 6 7 7 8 8 8 8 7 7 5 5 5 5 8 12 16 18 19 20 19 18 17 16 16 16 15 14 12 12 11 10 10 9 7 6 6 4 5 6 5 4 5 6 8 11 12 11 12 14 16 16 16 17 18 19 19 17 16 17 18 18 20 19 17 16 18 18 19 19 19 21 21 23 25 25 26 27 27 27
2 1 3 4 3 3 1 4 5 5 7 7 5 3 2 2 7 9 7 7 8 8 9 9 8 7 6 6 5 6 6 6 9 16 20 20 20 19 19 17 16 15 14 13 11 10 10 11 11 10 9 7 5 4 3 3 4 5 4 3 5 6 9 10 9 9 11 13 13 12 15 17 18 18 17 16 17 17 16 17 18 16 15 16 16 17 17 18 19 20 22 23 24 25 26 26 27
4 4 3 4 3 3 4 4 3 7 7 6 6 5 4 1 7 10 8 7 9 9 9 8 8 8 7 7 7 7 8 7 10 18 22 21 20 20 19 18 17 16 14 12 10 8 8 9 10 10 9 7 5 4 2 1 2 4 4 3 3 4 6 8 8 7 8 10 11 11 13 14 15 15 15 16 16 17 16 15 17 16 15 14 15 16 16 16 17 18 21 22 23 23 23 24 25
6 6 4 4 4 4 5 5 5 9 7 6 8 6 4 6 8 10 8 7 8 8 8 8 8 8 8 8 7 8 8 9 13 20 22 22 22 21 20 19 18 17 16 14 12 10 10 10 10 11 11 9 7 5 4 2 0 2 3 2 1 2 5 7 6 6 7 8 10 12 12 12 14 15 14 15 16 17 16 15 16 16 14 13 14 15 15 15 16 17 19 21 23 23 23 23 24
4 3 3 4 4 4 4 4 5 6 6 5 5 4 4 8 9 10 9 6 8 10 10 10 10 9 9 10 10 10 10 10 15 20 22 23 23 22 21 20 18 18 17 16 14 13 12 12 12 13 12 11 8 7 6 5 3 0 1 1 0 2 6 6 5 5 7 8 11 13 13 12 14 14 14 13 13 15 16 16 16 16 14 12 13 13 14 14 14 16 18 20 22 22 23 23 25
4 4 4 5 4 5 5 4 3 2 4 3 2 4 5 6 7 7 8 9 10 12 12 13 13 11 10 11 12 11 9 9 13 17 20 23 23 23 22 21 20 19 19 18 17 16 15 14 14 14 14 12 10 9 8 7 5 2 1 1 1 3 6 5 4 6 8 11 13 14 12 12 12 13 14 13 11 12 14 15 15 15 14 12 12 12 12 12 13 15 17 19 19 20 22 22 25
6 5 4 5 4 3 5 3 3 3 2 3 2 4 4 3 5 6 9 11 9 9 11 12 12 12 11 12 12 11 9 8 9 13 18 23 24 24 24 23 23 21 21 20 18 18 18 17 16 16 16 14 12 10 10 8 6 4 3 3 3 4 5 4 5 8 10 13 13 12 10 10 11 12 13 13 12 11 11 12 11 13 14 11 11 12 12 12 13 14 16 17 18 18 19 20 23
4 4 3 4 3 2 3 4 2 4 1 2 4 3 2 1 3 6 10 10 5 5 8 9 10 13 13 12 11 11 11 10 10 12 15 21 24 25 26 26 25 24 23 22 21 20 21 20 18 18 18 15 13 12 11 10 7 6 4 3 4 5 5 5 7 9 11 13 13 10 8 9 10 11 12 12 12 11 11 10 8 9 12 11 10 12 12 11 13 14 15 15 16 17 17 18 20
3 4 5 4 3 5 5 3 2 4 3 3 5 2 3 4 6 7 7 6 6 5 7 8 10 11 11 11 11 11 12 12 12 12 14 19 22 25 28 28 27 26 26 25 24 23 23 22 20 19 20 17 15 14 13 11 9 7 6 4 4 5 5 7 9 11 12 13 12 9 7 9 10 10 11 11 12 12 11 11 7 6 9 10 9 11 11 11 13 14 14 15 15 15 15 16 18
4 3 6 6 6 6 4 3 4 3 3 1 4 1 5 3 7 8 4 5 8 7 8 11 10 10 10 10 11 11 11 12 12 13 15 19 23 25 27 28 28 29 29 28 26 25 24 23 21 20 21 19 17 15 14 13 11 9 7 6 5 5 6 7 9 11 12 12 11 8 7 9 10 10 10 10 11 12 12 10 6 4 7 9 9 11 11 12 13 13 14 15 14 15 16 16 17
3 4 5 4 5 5 5 6 5 1 3 3 3 4 5 3 5 8 5 6 10 8 11 12 10 10 11 11 10 11 11 11 11 13 16 20 23 24 25 28 30 32 32 29 27 26 26 25 23 22 23 21 18 17 15 14 12 10 7 5 5 5 6 7 9 10 11 11 8 7 8 9 10 10 10 10 11 11 11 9 5 4 5 7 9 10 11 12 13 13 14 15 14 15 17 17 16
3 4 4 5 6 6 7 7 5 3 1 3 0 3 3 4 4 4 5 7 9 10 14 14 11 11 12 12 11 12 12 11 11 11 14 19 23 25 27 30 33 34 33 30 28 27 28 27 25 24 24 22 19 18 16 15 13 10 6 5 5 6 7 7 8 10 11 10 7 7 9 9 10 9 9 11 11 12 11 8 6 4 4 5 6 7 9 10 11 12 13 14 15 16 18 19 17
4 3 5 5 6 5 5 6 3 2 2 3 3 2 2 6 4 2 3 6 9 13 17 16 14 13 13 13 13 12 12 12 12 12 14 19 24 28 30 32 35 35 33 31 30 29 28 28 26 26 25 22 20 18 17 15 13 10 7 6 6 6 6 7 8 10 10 9 7 8 10 10 9 9 10 12 12 12 12 10 7 6 6 6 7 8 9 9 10 11 12 13 15 16 17 19 18
3 3 5 3 4 4 4 4 2 2 2 4 6 4 2 5 3 2 2 5 9 13 14 14 13 13 13 13 13 12 11 11 12 14 18 23 27 31 33 33 34 34 33 32 31 30 29 28 27 28 26 23 20 18 17 15 13 10 7 7 7 6 7 7 9 10 9 8 8 9 10 10 9 10 11 12 13 12 12 11 11 10 9 10 10 11 12 12 12 13 14 14 14 14 15 16 17
1 4 5 5 5 4 4 2 3 3 3 6 7 7 5 4 3 4 4 5 8 10 9 9 11 12 13 13 12 12 11 10 11 12 17 24 29 31 32 31 32 33 32 32 31 30 30 29 29 29 26 23 21 19 17 15 13 11 9 8 7 7 7 8 9 9 9 9 9 10 10 10 9 10 11 10 10 10 10 11 11 11 11 11 12 13 14 14 14 14 15 15 15 14 14 15 16
3 4 4 3 3 4 4 4 3 2 5 6 5 5 5 5 5 5 8 7 5 8 8 9 13 14 14 13 12 12 11 11 10 10 13 18 22 25 27 29 31 31 30 32 32 31 31 31 31 29 25 23 21 19 18 16 14 12 10 9 8 7 7 8 9 9 9 9 10 10 10 10 9 10 9 8 7 8 9 10 10 11 11 12 12 13 14 14 15 15 15 15 16 15 15 16 16
4 4 4 3 1 3 2 3 0 3 6 5 4 3 3 7 8 6 10 11 8 8 8 9 12 13 13 12 11 10 9 10 11 10 11 12 16 20 24 27 28 29 31 32 32 32 32 33 31 29 26 24 22 20 19 17 14 12 11 10 9 8 8 9 9 9 10 10 10 11 10 10 9 9 8 7 7 7 8 10 10 11 12 12 12 12 12 13 13 14 15 16 17 17 17 18 18
3 3 4 3 2 1 2 3 1 3 5 4 3 2 1 5 6 4 7 9 9 8 9 8 9 10 12 12 11 10 9 10 10 10 10 11 15 21 24 26 28 29 31 32 32 33 34 33 31 29 27 24 23 21 20 18 15 13 12 11 10 9 9 10 10 10 10 11 12 11 10 10 9 9 8 8 9 9 10 11 12 13 13 14 14 13 12 11 11 12 13 15 16 17 19 19 20
3 4 5 4 4 4 3 3 3 4 4 3 1 1 2 3 2 4 6 7 7 7 8 7 7 8 9 9 9 10 10 10 9 10 11 13 18 22 24 27 29 30 32 32 33 34 34 33 32 30 27 25 24 22 21 18 16 14 13 12 11 10 10 10 10 10 11 13 13 12 11 10 10 10 10 10 10 11 12 13 13 14 15 15 15 14 14 13 13 13 13 14 15 16 18 19 20
2 2 5 2 3 4 2 3 5 3 2 3 2 2 4 4 2 3 3 5 4 4 3 4 6 6 6 7 9 10 11 10 10 10 11 14 19 23 24 27 29 30 32 33 34 35 35 34 32 30 28 27 25 24 22 20 17 16 15 14 13 11 10 10 10 11 13 14 14 13 12 11 11 11 11 11 12 13 13 14 15 15 15 15 15 15 15 16 16 16 16 16 15 15 17 18 19
0 2 2 4 4 6 3 2 0 3 1 4 1 2 5 3 3 4 5 6 5 5 4 3 6 5 6 8 9 10 11 11 11 12 11 14 18 22 25 27 29 30 32 34 36 37 37 35 33 31 29 27 26 25 23 21 19 18 17 15 13 12 11 11 11 12 13 14 14 14 13 12 12 12 12 13 13 14 14 14 14 14 14 14 15 16 16 17 18 18 18 18 17 16 16 17 18
3 2 4 2 2 4 3 0 3 3 2 4 1 3 4 3 3 5 6 6 7 5 4 5 5 5 8 10 10 11 12 11 11 11 11 13 18 21 24 27 31 34 35 36 37 37 37 35 33 32 30 29 28 26 24 22 21 20 19 17 15 13 12 12 12 12 13 14 15 14 13 13 13 13 14 14 14 14 13 13 13 13 14 14 15 16 17 17 18 19 19 20 19 18 17 17 16
3 3 3 1 2 0 1 2 0 0 2 4 4 3 3 3 4 4 4 6 8 7 5 6 7 8 10 10 10 11 10 8 9 10 10 11 16 21 24 27 30 33 35 37 37 37 36 34 33 32 31 30 29 27 25 24 23 22 20 17 16 14 13 12 13 13 13 14 14 13 13 13 13 14 14 14 14 14 13 13 13 13 13 14 14 15 16 17 17 18 20 21 20 19 18 18 17
1 0 1 0 3 3 2 2 2 2 2 3 4 4 2 5 5 4 7 9 8 7 7 8 11 11 11 10 10 10 10 10 10 11 10 11 16 22 25 27 30 32 34 35 35 35 35 35 34 32 31 29 28 27 26 25 24 22 20 18 16 15 14 14 13 13 14 14 14 13 13 13 13 14 14 15 15 15 14 14 14 14 14 14 14 14 15 16 17 19 20 20 20 19 19 19 18
1 0 2 1 0 1 1 1 2 3 2 3 4 4 5 6 4 6 8 9 8 9 9 10 11 11 12 11 10 10 11 11 11 11 11 12 16 21 24 27 29 31 32 33 34 35 35 35 34 33 32 30 29 29 28 27 25 23 21 19 17 16 15 15 14 14 15 15 15 14 13 13 13 14 15 15 16 15 15 14 14 14 14 14 14 15 15 16 18 19 19 18 19 19 20 20 19
4 4 4 3 3 2 2 2 2 1 2 4 3 5 7 5 3 6 8 8 8 10 10 10 10 12 12 12 12 12 11 12 13 13 11 11 15 20 23 25 26 28 30 31 33 34 34 35 34 34 33 32 31 30 29 28 26 23 22 20 18 17 16 16 15 15 16 16 16 15 14 14 14 15 15 15 16 15 14 15 14 14 14 14 15 15 16 17 19 20 18 18 18 19 20 20 20
Wind_Direction
320 323 332 340 332 330 354 74 71 321 100 271 257 194 258 245 187 146 127 121 67 47 360 41 53 53 92 111 122 101 51 51 88 164 154 140 94 35 40 73 58 35 34 53 59 50 45 38 35 34 35 35 33 28 30 34 33 32 30 30 31 33 33 38 43 44 43 43 44 40 38 36 39 27 5 359 2 4 2 7 13 16 19 20 11 6 20 25 30 36 37 40 33 32 35 35 33
321 325 334 342 346 68 266 78 96 304 43 283 264 174 259 306 70 164 163 127 102 143 124 78 77 75 95 114 120 93 47 27 45 88 110 127 93 42 61 78 52 42 41 60 61 52 47 41 37 37 37 35 33 28 34 37 35 35 33 34 34 36 39 42 48 53 51 53 59 55 56 54 49 46 37 33 33 31 24 22 23 24 28 28 25 24 38 49 48 50 49 49 50 50 46 43 40
322 328 338 350 16 75 44 42 99 194 175 240 272 234 259 80 168 190 146 130 133 153 144 96 82 60 87 98 58 63 65 353 44 81 76 83 77 44 68 73 53 47 48 66 62 54 49 43 42 41 40 38 37 34 38 39 37 37 37 38 38 38 40 47 52 55 56 57 63 62 64 64 61 61 57 58 58 56 53 48 40 39 43 41 42 44 48 54 55 59 63 61 59 54 48 45 44
321 329 337 357 45 28 61 74 153 154 203 230 272 274 280 166 163 117 126 136 149 162 152 97 68 359 37 83 46 61 90 130 32 56 88 56 47 54 72 75 59 52 55 69 65 57 49 45 47 44 43 43 42 42 43 43 41 41 41 41 40 41 42 51 55 56 58 58 61 61 62 63 65 64 59 61 61 61 61 58 54 52 56 55 55 57 56 58 57 58 59 58 56 50 46 45 45
325 338 334 26 88 31 104 123 165 160 220 192 217 268 248 170 138 121 133 131 162 185 90 110 87 355 53 72 11 64 90 130 65 65 91 59 62 77 84 82 67 59 59 69 69 61 52 49 50 48 49 48 49 49 48 48 48 47 46 44 42 44 47 53 55 55 57 57 58 58 59 59 63 65 61 61 58 59 61 60 61 58 57 57 55 55 55 55 54 52 52 52 51 47 45 42 37
339 357 9 106 122 190 125 245 217 226 237 162 193 246 171 161 135 128 123 99 69 27 31 91 111 121 79 48 36 59 81 153 99 66 80 71 77 90 92 90 78 66 66 75 73 66 59 55 55 56 55 53 54 54 54 55 52 52 53 52 52 51 53 55 54 54 55 56 56 56 55 54 56 59 60 59 56 58 62 60 60 60 56 53 50 49 50 50 49 49 51 51 48 44 38 33 28
347 2 53 69 335 11 111 224 227 250 249 183 186 183 164 155 138 131 130 134 91 41 38 89 114 112 82 98 89 44 48 110 111 82 86 83 88 98 97 98 88 73 76 83 79 73 67 61 61 59 58 57 56 57 58 59 56 56 57 58 60 59 58 56 55 54 54 54 54 53 51 49 49 49 50 52 52 55 60 58 57 60 56 52 50 48 48 47 44 45 49 46 42 40 34 31 31
350 351 68 85 19 352 119 240 237 215 250 236 197 176 163 157 152 142 136 143 126 62 65 135 128 89 69 72 96 49 61 93 106 93 91 90 95 101 100 100 90 83 87 90 87 81 71 64 63 60 60 59 59 64 65 64 60 56 57 61 64 64 63 60 57 56 54 54 55 55 51 48 48 47 46 46 48 51 53 53 56 59 56 53 52 49 47 45 42 43 43 39 35 34 36 39 39
5 155 4 93 135 299 241 264 272 228 245 249 213 177 153 156 158 133 116 93 108 92 46 229 190 96 114 84 86 106 69 94 108 93 90 92 97 101 99 97 93 92 92 93 92 87 79 71 69 67 68 67 68 73 74 71 67 63 64 67 68 66 65 63 60 59 58 58 60 59 57 55 53 50 49 47 46 47 45 45 49 53 53 52 53 51 48 47 44 42 37 32 31 32 39 44 44
22 62 83 107 104 270 284 280 272 263 256 234 135 115 126 143 115 95 104 105 107 94 63 38 87 116 128 100 89 119 95 119 111 90 91 98 100 102 99 97 97 96 94 93 92 91 90 85 82 80 78 76 76 79 80 76 74 74 74 73 72 69 68 68 66 65 64 63 62 62 62 60 58 55 53 53 51 49 45 42 44 45 48 49 50 48 47 49 46 45 41 33 34 37 43 44 45
30 331 100 102 86 204 257 259 260 280 329 23 36 28 96 116 94 80 93 107 86 94 113 50 89 118 113 99 93 122 128 130 111 95 101 106 104 103 100 98 97 98 96 94 93 93 92 91 89 87 84 80 79 82 84 81 78 77 77 77 77 74 74 73 71 70 68 66 65 65 64 63 62 59 58 56 55 56 51 45 43 44 45 44 45 43 42 44 43 44 44 42 42 42 49 49 47
65 320 64 111 191 204 222 211 263 285 9 26 17 338 344 120 109 117 112 107 100 99 40 6 136 134 98 98 156 136 138 130 115 106 110 109 104 103 101 98 97 97 95 95 94 92 90 90 90 89 88 86 85 84 85 83 81 79 78 78 77 76 76 75 74 73 71 69 68 66 64 64 63 61 61 59 57 58 56 52 47 47 47 44 42 40 38 39 40 41 40 40 40 40 44 44 42
129 177 84 133 203 186 211 217 257 217 5 345 107 316 312 83 101 136 126 95 63 98 25 348 151 135 88 118 140 150 152 139 124 114 114 109 104 101 100 98 96 95 93 94 93 90 90 90 90 90 90 91 90 88 84 81 80 82 81 79 77 75 75 73 73 72 71 70 68 66 64 63 61 60 60 59 58 57 56 56 51 51 52 50 46 44 40 38 39 40 37 33 34 35 38 36 33
174 164 116 198 263 180 216 230 233 181 223 204 162 295 356 20 36 55 100 92 28 69 39 2 136 107 99 142 141 172 164 143 128 119 115 108 104 100 98 96 95 94 91 91 89 88 90 90 91 90 90 90 89 87 83 80 79 80 79 79 77 75 74 72 71 69 67 67 67 65 63 62 60 58 57 57 56 54 53 54 53 51 52 51 50 49 45 43 42 42 39 33 31 31 33 32 28
184 137 104 159 303 289 227 213 198 186 212 171 138 94 86 22 6 35 39 101 65 6 11 34 53 67 154 165 164 176 163 144 131 121 115 108 104 100 98 96 94 93 91 90 89 89 90 90 91 90 90 88 86 84 81 79 78 77 75 74 73 72 71 70 68 65 63 63 62 60 60 60 58 56 55 54 53 51 50 51 51 50 49 48 48 48 47 45 45 46 45 42 38 33 29 27 27
158 98 79 89 264 258 230 211 135 171 233 143 141 130 92 20 11 51 358 62 111 19 4 24 348 12 146 156 150 159 153 140 133 124 116 110 105 101 99 97 95 93 91 91 90 90 91 91 91 90 89 87 85 83 80 78 76 75 74 71 69 68 67 66 64 62 60 58 57 55 54 54 54 52 51 50 49 48 47 47 47 48 47 46 45 45 45 44 44 45 44 44 44 39 33 31 31
74 90 94 253 224 215 225 224 170 173 214 161 171 157 107 58 16 87 35 48 92 68 50 47 24 52 80 118 139 145 140 134 132 124 116 111 106 101 98 97 96 92 90 90 90 92 93 93 92 91 89 86 85 83 80 77 74 73 71 69 67 65 63 62 60 58 57 55 53 51 50 49 48 47 45 45 44 44 43 42 43 44 45 44 43 43 42 41 41 41 41 40 42 40 35 33 35
75 114 160 220 222 206 224 221 188 161 160 171 183 146 124 135 154 153 64 47 78 78 61 60 60 58 75 119 138 137 134 135 131 123 117 112 108 101 96 96 96 93 92 91 91 94 95 94 94 92 90 87 85 82 79 76 73 70 68 66 65 62 59 58 56 55 53 52 50 49 48 46 45 44 42 41 41 40 39 38 38 39 41 41 41 40 39 38 37 37 37 36 37 37 35 32 32
135 137 153 222 217 203 242 216 178 149 152 156 151 141 131 141 156 156 109 94 94 88 76 77 82 74 81 116 137 134 134 135 129 124 119 115 112 106 102 99 98 96 94 94 94 95 96 97 96 94 91 89 85 82 79 76 72 69 66 64 62 60 57 55 54 52 51 50 49 48 47 46 44 43 41 39 38 37 37 36 35 35 36 37 37 36 36 35 34 34 33 32 32 33 32 32 30
176 125 169 240 221 216 302 264 188 150 140 134 125 121 104 130 152 118 127 126 75 112 133 119 117 119 104 114 126 130 133 130 127 124 119 117 115 112 110 106 103 100 98 99 99 99 99 99 97 96 94 90 86 83 80 76 73 70 66 64 61 59 56 54 52 51 50 48 48 47 46 45 43 42 40 38 36 34 34 33 32 32 32 32 32 32 31 31 30 31 30 28 27 27 28 28 27
169 141 190 229 203 212 315 325 147 128 130 129 125 112 101 92 55 107 136 117 62 167 168 142 142 139 127 120 120 127 129 125 125 122 121 120 117 115 113 110 107 105 106 106 104 103 102 101 100 99 96 92 88 84 81 78 75 72 67 64 61 58 55 53 51 49 48 46 46 45 44 43 42 41 38 36 34 33 32 31 31 30 30 30 30 30 29 27 27 27 26 25 24 24 24 24 23
170 216 191 197 168 167 283 8 121 116 110 116 127 125 123 100 46 71 131 126 187 177 141 130 136 134 128 125 122 124 124 125 126 124 125 123 122 119 115 114 112 111 112 108 106 107 106 104 103 102 98 93 89 86 83 80 76 72 69 65 61 58 55 52 50 47 46 44 43 42 41 40 39 39 37 35 34 32 31 31 31 31 31 31 30 29 28 27 26 26 25 25 24 22 22 22 21
184 259 202 244 177 149 180 135 124 124 126 132 142 134 111 102 75 19 53 83 145 123 122 124 121 121 121 120 120 122 124 127 128 128 129 128 127 124 121 120 117 116 113 109 111 112 111 107 105 104 100 95 91 88 84 80 76 73 70 66 61 58 54 51 48 45 44 42 41 39 37 37 37 36 36 35 34 32 33 32 32 32 32 31 29 28 27 26 26 25 26 25 24 22 21 21 21
139 222 246 270 135 137 156 134 114 98 117 130 119 106 98 119 122 62 65 75 89 106 113 114 112 114 114 114 116 120 124 126 127 129 131 130 129 126 125 122 120 120 115 113 116 116 116 112 107 104 100 96 92 88 83 80 76 73 70 65 61 57 53 50 47 44 42 40 39 37 35 35 34 34 34 33 32 32 32 32 33 33 32 31 28 28 26 25 24 24 25 24 24 22 21 20 20
141 209 212 150 103 93 108 111 107 90 99 103 88 75 62 111 117 88 89 95 94 109 110 111 111 109 109 111 115 120 122 124 125 127 128 129 129 127 125 124 125 124 120 119 120 118 118 115 109 103 98 94 90 86 82 78 75 71 67 63 59 54 51 48 44 41 40 39 38 36 34 33 32 32 32 31 31 31 31 32 33 33 32 29 27 27 25 24 23 23 23 23 23 22 20 19 17
201 200 191 150 134 125 111 94 104 106 117 117 90 76 102 119 97 73 147 147 112 115 113 115 114 110 113 114 119 124 125 127 129 129 129 131 131 129 128 129 129 126 125 125 125 123 122 119 111 104 98 92 87 83 78 74 70 67 63 60 56 51 48 45 41 38 36 35 34 33 32 31 30 30 29 29 29 29 30 31 32 33 31 27 26 26 24 23 22 22 22 21 22 21 20 18 14
192 173 162 152 153 150 130 115 121 115 108 124 108 118 153 163 102 117 215 195 130 124 121 124 122 122 127 122 126 129 130 134 135 133 132 134 135 134 134 135 132 128 129 128 128 129 128 123 114 106 98 91 85 79 75 70 65 62 59 55 50 46 43 40 38 35 32 31 30 29 28 27 27 26 26 27 27 28 28 30 32 32 30 27 24 24 23 23 21 21 21 21 20 20 20 18 14
186 171 143 151 152 134 122 129 152 139 100 127 118 119 176 254 320 173 182 179 143 134 132 134 129 131 135 130 133 133 135 139 140 139 139 141 142 142 143 142 139 135 133 129 129 130 127 122 115 107 98 92 86 78 73 68 62 58 54 50 46 41 37 35 34 31 29 27 24 24 23 23 22 21 22 23 25 26 27 29 31 32 31 26 23 22 22 22 21 19 19 19 18 18 18 16 14
23 226 139 194 152 163 172 147 171 163 139 152 124 101 250 274 316 168 163 159 141 137 138 140 138 140 141 136 138 137 140 143 144 146 147 148 149 149 149 148 147 142 137 134 132 130 124 118 115 111 102 93 85 78 72 67 61 56 50 46 43 37 32 30 29 27 25 22 19 17 18 18 17 17 17 20 22 24 25 26 29 32 30 25 21 19 19 20 20 17 16 16 16 15 15 13 11
63 26 121 167 335 263 211 159 172 163 148 166 149 214 221 191 246 164 158 155 142 144 149 148 145 145 146 144 142 142 147 148 149 152 153 152 153 154 152 153 154 148 144 144 141 138 133 126 118 113 108 96 87 80 73 69 64 57 50 45 42 35 29 26 23 21 18 15 12 9 10 12 12 11 11 15 18 21 23 23 25 27 27 23 19 16 16 17 18 15 12 12 14 13 13 11 9
116 236 359 162 202 263 250 170 164 161 179 180 176 251 219 183 195 177 165 162 151 153 155 153 153 153 152 150 149 150 157 156 154 156 158 158 157 158 155 156 160 155 154 154 152 149 147 143 127 113 107 102 97 88 77 72 64 59 53 47 43 33 29 25 18 15 11 8 5 2 3 5 6 5 4 7 12 16 19 18 18 21 21 19 16 14 13 13 16 15 10 8 10 10 9 9 8
56 209 285 278 199 261 298 213 174 173 194 188 170 244 249 227 193 187 173 165 159 159 161 160 160 159 158 156 154 155 164 161 158 158 161 163 163 163 161 160 161 160 158 157 157 155 155 154 140 122 112 108 107 98 84 76 65 59 53 45 40 33 30 26 17 11 6 1 358 357 357 359 360 357 355 358 3 8 13 14 12 12 15 13 12 10 9 10 11 12 11 7 6 6 5 5 5
342 198 232 255 215 250 313 267 207 175 140 191 201 184 256 248 189 188 185 172 164 162 170 170 167 167 164 162 163 161 166 166 167 168 167 168 170 171 170 167 165 164 162 158 155 152 151 152 146 136 130 126 122 120 99 82 72 59 51 40 36 33 28 26 19 10 3 357 357 357 355 355 354 351 349 349 353 358 4 8 5 3 6 7 8 7 6 7 7 7 9 8 5 3 2 1 1
286 205 227 243 208 195 245 284 250 158 146 197 208 188 239 251 177 184 193 178 168 172 178 177 173 175 171 169 172 172 175 177 181 178 174 174 175 177 177 175 175 174 172 170 163 155 149 148 149 150 152 150 142 141 113 79 68 51 53 51 38 35 24 18 13 6 1 354 357 4 358 353 351 348 345 342 344 347 351 359 359 356 357 360 3 3 3 4 4 5 5 5 5 2 1 1 358
204 193 214 248 220 193 213 257 220 166 184 194 173 212 240 177 171 187 198 183 176 183 182 181 181 179 179 179 180 182 184 192 192 183 180 180 180 180 181 181 182 181 180 179 177 174 165 157 159 165 171 173 171 169 152 81 49 39 54 68 47 39 9 1 3 360 354 349 357 6 359 352 351 349 343 337 335 336 339 345 350 351 350 353 358 359 359 360 1 3 3 1 0 0 2 360 356
180 187 178 214 229 235 221 239 220 176 188 203 184 210 205 169 183 191 198 187 180 188 183 185 188 184 186 187 188 190 191 199 196 187 183 185 186 186 187 187 187 185 184 184 184 188 187 177 174 180 188 193 196 200 215 231 253 42 71 90 66 32 345 349 1 351 341 341 346 348 344 341 344 347 345 336 329 328 330 333 339 344 343 346 354 356 354 355 357 359 0 357 354 357 360 360 357
164 170 185 215 217 258 254 255 255 177 174 223 189 171 179 187 194 192 192 184 186 192 188 192 193 190 192 192 194 195 198 201 194 190 188 188 191 192 193 193 192 191 191 191 192 195 195 192 190 193 198 203 209 217 226 227 227 221 108 132 153 337 338 346 354 339 332 330 331 331 329 329 334 339 343 340 331 327 325 325 328 334 337 340 350 354 349 349 353 354 356 354 352 354 356 359 357
234 224 241 252 215 246 260 249 284 162 181 266 99 144 210 206 197 197 190 192 202 198 192 196 195 194 195 195 198 198 199 198 191 193 193 192 193 195 196 196 195 196 195 195 197 198 199 202 202 201 202 206 216 224 226 224 225 225 213 208 253 315 333 346 341 330 327 325 329 330 329 332 334 337 341 342 340 332 324 321 321 326 330 333 345 351 347 344 349 352 350 349 349 351 353 356 356
232 225 228 253 236 247 272 266 356 50 205 255 132 177 240 228 202 212 206 207 213 205 202 203 195 195 200 198 198 197 197 194 191 197 197 195 196 196 199 200 201 202 199 199 201 202 203 206 208 207 206 210 218 221 221 223 221 220 223 230 266 310 332 338 322 320 323 327 334 338 339 343 342 341 343 344 345 341 332 325 319 321 321 325 340 348 348 345 347 348 345 341 342 346 349 353 356
214 194 192 243 249 219 264 275 14 47 82 167 147 187 270 241 216 233 225 222 228 220 219 217 206 203 202 201 199 196 196 195 195 199 199 198 197 198 200 203 205 207 206 206 208 210 210 211 212 211 210 213 216 217 219 220 219 220 221 241 281 313 330 321 314 320 326 333 342 347 349 349 345 342 343 347 349 347 342 338 328 318 314 319 336 345 348 350 349 345 339 334 335 341 344 348 353
260 201 195 222 224 206 233 244 115 52 29 109 107 12 294 199 207 235 227 222 236 230 220 224 222 214 205 202 201 199 197 195 195 198 199 198 198 200 203 205 207 209 211 211 211 213 213 213 215 215 214 214 215 214 217 219 221 224 232 264 297 319 327 322 324 331 335 339 345 350 350 345 341 339 340 345 351 351 350 345 339 322 309 311 330 341 345 347 345 340 332 327 329 335 337 337 341
299 245 210 210 203 204 212 158 115 52 328 204 122 342 289 228 216 233 207 203 228 227 225 227 223 216 210 205 202 202 202 199 197 198 198 198 200 203 205 207 209 212 215 215 215 216 216 217 218 216 214 213 214 214 215 220 225 232 248 279 304 320 326 328 333 335 336 338 340 341 338 335 333 331 334 342 348 353 357 351 348 341 312 308 325 334 338 339 336 333 328 321 319 325 329 327 327
293 255 205 191 171 162 154 144 130 129 251 254 160 192 271 288 244 237 194 203 229 230 235 233 221 214 213 209 203 201 203 202 200 200 199 200 202 204 206 208 210 214 218 218 218 221 221 221 220 215 211 211 212 214 216 221 226 235 253 279 298 313 320 324 328 328 328 329 326 325 328 328 327 325 327 335 340 348 358 1 7 7 326 316 326 329 332 334 330 328 324 316 311 316 322 319 314
245 240 150 135 138 146 156 155 168 201 225 326 114 169 266 280 268 249 177 197 235 236 238 236 224 219 214 211 208 201 201 200 198 202 201 202 204 204 207 210 212 217 219 218 219 222 222 222 220 213 209 211 212 214 217 222 227 234 251 271 284 302 312 315 318 319 320 318 310 315 325 325 323 322 324 330 334 337 347 0 13 10 347 334 336 333 332 332 328 325 323 316 311 312 315 311 305
240 206 132 131 139 144 141 145 190 268 16 322 261 170 266 268 283 360 148 198 239 238 235 233 224 220 215 213 210 204 202 199 197 200 201 204 206 208 210 212 216 219 220 219 219 220 221 221 217 210 208 210 212 213 218 223 228 237 254 268 276 292 302 305 309 313 314 307 303 314 323 323 321 320 321 325 328 329 333 340 346 345 344 341 336 333 331 328 326 327 328 323 317 314 312 304 296
232 134 95 62 75 87 89 116 144 11 6 258 232 183 213 267 257 82 132 217 239 238 236 232 224 221 217 214 211 206 203 201 201 201 202 205 208 210 213 215 218 220 221 221 221 221 220 217 211 207 208 210 212 216 221 224 230 241 257 265 271 283 291 297 303 309 308 299 302 315 322 322 322 322 322 322 324 327 329 331 335 335 336 333 328 327 325 323 321 319 319 319 318 318 315 305 292
162 86 57 32 30 46 54 65 81 51 300 254 227 194 191 266 253 174 188 216 220 225 236 231 220 219 217 214 210 206 202 202 202 204 206 209 211 212 213 216 219 221 221 221 221 220 217 211 207 206 208 211 214 218 222 226 231 243 257 261 265 274 284 294 300 305 302 294 301 315 320 318 322 325 323 322 325 328 328 330 335 336 337 337 335 335 333 330 326 320 316 313 313 315 315 312 302
81 70 64 58 355 13 26 360 47 102 259 260 238 197 171 235 256 212 221 245 222 208 222 219 211 214 215 211 207 204 203 202 200 203 209 210 212 213 213 215 218 219 218 218 218 217 212 207 205 206 208 211 215 219 221 225 231 241 251 251 255 268 284 293 296 298 293 288 299 310 312 312 317 319 318 317 321 322 321 321 324 326 328 332 334 336 337 334 330 326 323 320 318 317 315 315 311
69 78 77 85 345 7 11 313 344 208 251 250 204 162 163 240 257 228 223 246 244 220 226 222 212 212 212 208 206 202 199 201 200 202 207 208 210 211 211 214 216 215 215 214 213 211 207 205 205 206 208 211 215 218 220 224 230 238 244 244 250 267 286 292 291 291 285 282 291 299 301 304 308 309 306 305 306 310 313 314 316 317 319 321 322 325 330 333 331 328 326 324 321 320 319 319 316
123 139 115 122 128 70 268 263 273 252 265 258 199 178 256 270 280 233 214 239 247 242 243 233 217 214 213 208 204 201 199 200 201 202 205 207 209 210 210 211 212 212 212 211 208 206 204 204 205 207 210 212 215 218 220 223 230 237 240 242 251 269 286 289 288 285 278 278 284 289 291 293 297 296 292 293 296 300 305 308 310 311 311 312 313 315 319 325 328 328 327 326 323 320 318 317 317
185 165 128 136 152 155 210 221 209 241 275 288 270 215 209 224 255 221 224 253 262 260 250 231 226 223 212 207 203 203 207 205 204 205 207 209 209 208 209 209 210 210 210 207 205 203 203 204 206 208 211 213 215 218 220 224 231 235 236 241 252 269 282 285 284 280 274 275 278 279 281 284 285 284 284 287 291 295 301 304 306 306 307 308 309 311 314 318 321 322 324 325 324 323 319 314 313
245 148 112 153 182 151 161 193 183 189 289 287 235 219 218 207 239 252 275 295 300 313 288 218 223 222 193 198 206 207 211 210 209 211 211 212 210 207 206 207 208 207 206 204 202 202 203 205 207 210 213 215 216 218 222 227 231 232 234 240 251 265 276 280 280 275 270 271 272 272 276 279 277 277 280 284 288 294 299 302 303 304 305 305 306 308 311 314 318 321 322 324 324 325 324 318 314
215 114 167 220 177 126 121 263 297 90 267 269 210 249 288 327 315 315 343 328 319 339 335 227 219 209 191 205 212 209 212 212 211 214 214 213 210 207 206 205 203 203 202 201 202 203 205 207 208 211 214 216 218 220 223 227 228 228 232 238 249 260 268 276 277 271 268 266 265 267 273 276 274 274 277 281 287 292 296 298 301 303 303 304 305 306 309 311 315 318 321 324 324 324 324 322 319
121 159 224 220 106 88 102 220 354 35 253 274 253 244 285 334 303 317 342 314 291 291 280 259 243 215 211 218 216 213 215 214 215 216 216 214 209 206 205 203 202 202 202 202 203 205 207 210 212 212 214 215 218 220 223 226 226 227 231 236 245 255 265 273 274 270 265 260 260 265 272 276 273 272 274 279 283 287 290 293 296 298 299 300 301 303 306 308 311 315 319 321 323 323 322 321 321
144 191 218 126 123 226 76 139 237 316 263 289 299 286 274 220 237 289 292 261 256 253 244 247 238 221 221 224 221 220 217 215 217 216 215 212 209 205 202 201 202 202 203 205 206 207 208 212 215 217 219 220 220 221 223 225 226 227 231 237 244 252 263 270 269 265 260 257 259 266 272 275 271 268 271 275 278 281 286 289 291 294 295 297 299 301 303 305 309 315 317 317 319 321 321 320 320
25 342 279 79 151 180 170 153 168 180 241 279 304 328 288 232 217 209 236 240 234 230 227 231 230 222 222 223 219 217 212 213 216 213 214 212 209 208 204 202 202 203 205 206 207 208 209 213 216 217 220 221 221 222 223 223 225 228 231 236 242 250 260 263 262 260 258 256 260 264 267 268 265 266 271 274 277 280 282 285 287 289 291 294 297 299 301 304 309 315 317 314 314 316 318 319 318
119 145 246 248 98 160 183 167 129 135 178 234 287 301 262 248 212 187 223 240 223 212 215 226 231 225 225 224 219 217 213 216 218 214 216 214 212 212 209 206 205 205 206 207 207 209 211 213 215 217 218 219 220 221 222 224 225 228 231 235 242 249 255 256 256 257 257 256 259 261 263 265 265 269 273 274 276 277 279 280 281 282 285 290 293 296 299 304 311 317 316 311 310 311 312 314 317
159 180 211 181 150 129 123 289 308 84 163 187 213 270 259 247 202 196 219 228 220 217 216 227 235 229 228 227 221 219 216 217 219 217 216 214 212 212 210 207 206 204 204 206 208 209 210 212 215 217 218 219 221 221 222 224 226 228 232 237 243 247 248 249 253 256 255 255 257 261 266 269 271 273 273 272 273 274 274 274 276 277 281 285 289 294 299 304 312 316 314 306 303 304 305 307 310